Le nostre stazioni meteo in Italia

Pubblicità
Il mio iltempo24.it
Gela, Italia (16453): Temperatura & dewpoint: 18.06.2018 22:00:00 - 24.06.2018 22:00:00 (CEST)Gela, Italia (16453): velocità del vento: 18.06.2018 22:00:00 - 24.06.2018 22:00:00 (CEST)Gela, Italia (16453): direzione del vento: 18.06.2018 22:00:00 - 24.06.2018 22:00:00 (CEST)Gela, Italia (16453): reduced air pressure: 18.06.2018 22:00:00 - 24.06.2018 22:00:00 (CEST)Gela, Italia (16453): visibility: 18.06.2018 22:00:00 - 24.06.2018 22:00:00 (CEST)Gela, Italia (16453): ore di luce: 18.06.2018 22:00:00 - 24.06.2018 22:00:00 (CEST)
Data & Tempo tt [°C] td [°C] ff [km/h] ff [kn] dd ppp [hPa] vv [km] sd [min]
24.06.2018 22:00:00 - - - - - - - -
24.06.2018 21:00:00 - - - - - - - -
24.06.2018 20:00:00 22,0 17,6 11 6 ENE 1012,9 15 0
24.06.2018 19:00:00 22,0 18,0 4 2 NNE - 10 -
24.06.2018 18:00:00 23,0 18,0 11 6 SO - 10 -
24.06.2018 17:00:00 22,6 18,2 11 6 SO 1013,7 10 60
24.06.2018 16:00:00 23,0 18,0 11 6 OSO - 10 -
24.06.2018 15:00:00 23,0 18,0 11 6 SO - 10 -
24.06.2018 14:00:00 22,4 17,5 15 8 OSO 1014,2 18 60
24.06.2018 13:00:00 22,0 18,0 16 9 OSO - 10 -
24.06.2018 12:00:00 22,0 17,0 13 7 OSO - 10 -
24.06.2018 11:00:00 22,2 17,1 9 5 SO 1014,3 20 60
24.06.2018 10:00:00 22,0 17,0 9 5 SO - 10 -
24.06.2018 09:00:00 23,0 17,0 4 2 NNE - 10 -
24.06.2018 08:00:00 21,4 18,2 4 2 ENE 1014,1 20 60
24.06.2018 07:00:00 - - - - - - - -
24.06.2018 06:00:00 - - - - - - - -
24.06.2018 05:00:00 - - - - - - - -
24.06.2018 04:00:00 - - - - - - - -
24.06.2018 03:00:00 - - - - - - - -
24.06.2018 02:00:00 - - - - - - - -
24.06.2018 01:00:00 - - - - - - - -
24.06.2018 00:00:00 - - - - - - - -
23.06.2018 23:00:00 - - - - - - - -
23.06.2018 22:00:00 - - - - - - - -
23.06.2018 21:00:00 - - - - - - - -
23.06.2018 20:00:00 21,8 18,4 13 7 SO 1012,2 14 60
23.06.2018 19:00:00 23,0 19,0 13 7 SSO - 10 -
23.06.2018 18:00:00 23,0 19,0 15 8 OSO - 10 -
23.06.2018 17:00:00 23,0 18,1 16 9 O 1013,0 8 60
23.06.2018 16:00:00 23,0 19,0 16 9 O - 8 -
23.06.2018 15:00:00 23,0 19,0 16 9 OSO - 8 -
23.06.2018 14:00:00 23,4 19,4 18 10 OSO 1013,3 8 60
23.06.2018 13:00:00 23,0 19,0 22 12 O - 8 -
23.06.2018 12:00:00 22,0 18,0 13 7 SO - 7 -
23.06.2018 11:00:00 22,2 18,0 15 8 SO 1013,6 8 60
23.06.2018 10:00:00 22,0 19,0 11 6 SO - 8 -
23.06.2018 09:00:00 21,0 18,0 4 2 SSO - 6 -
23.06.2018 08:00:00 21,0 18,0 0 0 N 1013,8 4,0 0
23.06.2018 07:00:00 - - - - - - - -
23.06.2018 06:00:00 - - - - - - - -
23.06.2018 05:00:00 - - - - - - - -
23.06.2018 04:00:00 - - - - - - - -
23.06.2018 03:00:00 - - - - - - - -
23.06.2018 02:00:00 - - - - - - - -
23.06.2018 01:00:00 - - - - - - - -
23.06.2018 00:00:00 - - - - - - - -
22.06.2018 23:00:00 - - - - - - - -
22.06.2018 22:00:00 - - - - - - - -
22.06.2018 21:00:00 - - - - - - - -
22.06.2018 20:00:00 22,2 19,9 18 10 O 1013,2 13 30
22.06.2018 19:00:00 22,0 19,0 15 8 OSO - 10 -
22.06.2018 18:00:00 23,0 20,0 11 6 O - 10 -
22.06.2018 17:00:00 23,4 19,8 11 6 OSO 1014,1 11 36
22.06.2018 16:00:00 23,0 20,0 13 7 SO - 10 -
22.06.2018 15:00:00 23,0 20,0 15 8 SO - 10 -
22.06.2018 14:00:00 22,6 19,2 15 8 SO 1015,0 15 60
22.06.2018 13:00:00 22,0 19,0 16 9 ONO - 10 -
22.06.2018 12:00:00 22,0 18,0 15 8 SO - 10 -
22.06.2018 11:00:00 22,2 18,4 11 6 SO 1015,8 10 60
22.06.2018 10:00:00 22,0 18,0 13 7 SSO - 10 -
22.06.2018 09:00:00 22,0 18,0 5 3 SO - 10 -
22.06.2018 08:00:00 21,6 17,4 2 1 NNE 1015,7 10 60
22.06.2018 07:00:00 - - - - - - - -
22.06.2018 06:00:00 - - - - - - - -
22.06.2018 05:00:00 - - - - - - - -
22.06.2018 04:00:00 - - - - - - - -
22.06.2018 03:00:00 - - - - - - - -
22.06.2018 02:00:00 - - - - - - - -
22.06.2018 01:00:00 - - - - - - - -
22.06.2018 00:00:00 - - - - - - - -
21.06.2018 23:00:00 - - - - - - - -
21.06.2018 22:00:00 - - - - - - - -
21.06.2018 21:00:00 - - - - - - - -
21.06.2018 20:00:00 22,6 16,4 9 5 OSO 1015,3 15 0
21.06.2018 19:00:00 23,0 16,0 8 4 OSO - 10 -
21.06.2018 18:00:00 23,0 16,0 8 4 OSO - 10 -
21.06.2018 17:00:00 24,4 17,9 9 5 O 1016,9 10 36
21.06.2018 16:00:00 24,0 19,0 11 6 OSO - 10 -
21.06.2018 15:00:00 23,0 18,0 13 7 OSO - 10 -
21.06.2018 14:00:00 23,2 18,1 15 8 OSO 1016,6 18 60
21.06.2018 13:00:00 23,0 18,0 16 9 OSO - 10 -
21.06.2018 12:00:00 23,0 17,0 13 7 OSO - 10 -
21.06.2018 11:00:00 23,0 17,0 8 4 OSO 1017,5 10 60
21.06.2018 10:00:00 23,0 17,0 8 4 SO - 10 -
21.06.2018 09:00:00 22,0 17,0 4 2 OSO - 10 -
21.06.2018 08:00:00 22,0 18,0 0 0 N 1018,2 18 60
21.06.2018 07:00:00 - - - - - - - -
21.06.2018 06:00:00 - - - - - - - -
21.06.2018 05:00:00 - - - - - - - -
21.06.2018 04:00:00 - - - - - - - -
21.06.2018 03:00:00 - - - - - - - -
21.06.2018 02:00:00 - - - - - - - -
21.06.2018 01:00:00 - - - - - - - -
21.06.2018 00:00:00 - - - - - - - -
20.06.2018 23:00:00 - - - - - - - -
20.06.2018 22:00:00 - - - - - - - -
20.06.2018 21:00:00 - - - - - - - -
20.06.2018 20:00:00 24,0 15,8 8 4 SSE 1015,0 15 0
20.06.2018 19:00:00 26,0 18,0 9 5 N - 10 -
20.06.2018 18:00:00 25,0 17,0 15 8 NNE - 10 -
20.06.2018 17:00:00 25,0 17,2 8 4 N 1016,2 15 0
20.06.2018 16:00:00 25,0 17,0 5 3 N - 8 -
20.06.2018 15:00:00 24,0 17,0 13 7 NNO - 8 -
20.06.2018 14:00:00 24,4 15,3 9 5 SE 1016,3 8 0
20.06.2018 13:00:00 26,0 17,0 16 9 ESE - 10 -
20.06.2018 12:00:00 27,0 17,0 16 9 ENE - 10 -
20.06.2018 11:00:00 26,4 16,9 16 9 ENE 1015,4 10 60
20.06.2018 10:00:00 25,0 17,0 16 9 ENE - 10 -
20.06.2018 09:00:00 23,0 16,0 0 0 N - 10 -
20.06.2018 08:00:00 23,0 16,1 2 1 NE 1014,5 15 0
20.06.2018 07:00:00 - - - - - - - -
20.06.2018 06:00:00 - - - - - - - -
20.06.2018 05:00:00 - - - - - - - -
20.06.2018 04:00:00 - - - - - - - -
20.06.2018 03:00:00 - - - - - - - -
20.06.2018 02:00:00 - - - - - - - -
20.06.2018 01:00:00 - - - - - - - -
20.06.2018 00:00:00 - - - - - - - -
19.06.2018 23:00:00 - - - - - - - -
19.06.2018 22:00:00 - - - - - - - -
19.06.2018 21:00:00 - - - - - - - -
19.06.2018 20:00:00 23,4 16,0 4 2 SO 1014,0 18 0
19.06.2018 19:00:00 24,0 16,0 8 4 ENE - 10 -
19.06.2018 18:00:00 24,0 16,0 5 3 N - 10 -
19.06.2018 17:00:00 23,8 16,8 13 7 NNE 1014,2 14 0
19.06.2018 16:00:00 24,0 17,0 4 2 ONO - 10 -
19.06.2018 15:00:00 23,0 17,0 9 5 S - 10 -
19.06.2018 14:00:00 22,6 15,9 2 1 SO 1013,7 15 0
19.06.2018 13:00:00 22,0 16,0 9 5 SE - 10 -
19.06.2018 12:00:00 23,0 15,0 11 6 SO - 10 -
19.06.2018 11:00:00 23,4 16,2 5 3 SO 1013,2 20 60
19.06.2018 10:00:00 23,0 16,0 4 2 SO - 10 -
19.06.2018 09:00:00 22,0 17,0 0 0 N - 10 -
19.06.2018 08:00:00 22,0 16,5 4 2 NE 1012,5 20 60
19.06.2018 07:00:00 - - - - - - - -
19.06.2018 06:00:00 - - - - - - - -
19.06.2018 05:00:00 - - - - - - - -
19.06.2018 04:00:00 - - - - - - - -
19.06.2018 03:00:00 - - - - - - - -
19.06.2018 02:00:00 - - - - - - - -
19.06.2018 01:00:00 - - - - - - - -
19.06.2018 00:00:00 - - - - - - - -
18.06.2018 23:00:00 - - - - - - - -
18.06.2018 22:00:00 - - - - - - - -

tt = Temperatura
td = dewpoint
ff = velocità del vento
dd = direzione del vento
ppp = reduced air pressure
vv = visibility
sd = ore di luce

Stazioni seguenti

WeatherPro
AMSI
MeteoEarth